Regional Weather Roundup
Issued by NWS

Home | Current Version | Previous Version | Text Only | Print | Product List | Glossary Off
Versions: 1 2 3 4 5 6 7 8 9 10 11 12 13 14 15 16 17 18 19 20 21 22 23 24 25 26 27 28 29 30 31 32 33 34 35 36 37 38 39 40 41 42 43 44 45 46 47 48 49 50

000
ASUS45 KABQ 290710
RWRNM
NEW MEXICO REGIONAL WEATHER ROUNDUP
NATIONAL WEATHER SERVICE ALBUQUERQUE NM
100 AM MDT WED JUL 29 2015

NOTE: "FAIR" MEANS FEW OR NO CLOUDS BELOW 12,000 FEET AGL WITH NO
       SIGNIFICANT WEATHER OR OBSTRUCTIONS TO VISION.

      THIS PRODUCT IS RELEASED AS TWO VERSIONS.  ONE VERSION NEAR
      THE TOP OF THE HOUR CONTAINING PRELIMINARY DATA FROM ALBUQUERQUE
      AND OTHER STATIONS.  A FINAL VERSION WITH ADDITIONAL DATA IS
      ISSUED ABOUT 10 MINUTES AFTER THE HOUR.

NMZ501-503-504-510>518-290800-
NORTHWEST PLATEAU/NORTHCENTRAL MOUNTAINS

CITY           SKY/WX    TMP DP  RH WIND       PRES   REMARKS
FARMINGTON     CLEAR     66  24  20 E5        30.16S
LOS ALAMOS     PTCLDY    65  51  60 SW8       30.37S
SANTA FE       PTCLDY    66  52  60 S7        30.31R
TAOS           PTCLDY    59  43  55 E8        30.36R
ANGEL FIRE     FAIR      46  46  97 CALM      30.47S FOG

$$
NMZ402-403-502-505>509-290800-
WESTCENTRAL MOUNTAINS/SOUTHWEST MOUNTAINS

CITY           SKY/WX    TMP DP  RH WIND       PRES   REMARKS
GALLUP         CLOUDY    68  46  45 SW5       30.28S
GRANTS         CLOUDY    67  52  58 S8        30.31S
SILVER CITY      N/A     70  57  64 CALM      30.23F

$$
NMZ407-409-411-412-290800-
SOUTHERN DESERTS

CITY           SKY/WX    TMP DP  RH WIND       PRES   REMARKS
LORDSBURG      CLOUDY    77  55  47 W5        30.14R
DEMING         CLOUDY    73  61  65 E8        30.15S
LAS CRUCES     CLOUDY    70  63  77 W5        30.19R
HOLLOMAN AFB   MOCLDY    73  64  73 SE8       30.16R
ALAMOGORDO     CLOUDY    72  63  73 S8        30.18R
T OR C         CLOUDY    70  64  81 W5        30.18F

$$
NMZ519>523-290800-
CENTRAL VALLEYS/CENTRAL HIGHLANDS

CITY           SKY/WX    TMP DP  RH WIND       PRES   REMARKS
ALBUQUERQUE    CLOUDY    74  54  49 E10       30.23R
DOUBLE EAGLE   MOCLDY    68  56  67 SE3       30.27S
MORIARTY ARPT    N/A     63  56  77 CALM      30.33S
CLINES CORNERS CLOUDY    61  53  75 E6        30.35F
BELEN          PTSUNNY   72  56  56 S12       30.22F
SOCORRO        MOCLDY    71  57  61 CALM      30.21S

$$
NMZ524>526-539-540-290800-
SOUTHCENTRAL MOUNTAINS

CITY           SKY/WX    TMP DP  RH WIND       PRES   REMARKS
RUIDOSO          N/A    N/A N/A N/A MISG        N/A

$$
NMZ527>531-290800-
NORTHEAST HIGHLANDS/NORTHEAST PLAINS

CITY           SKY/WX    TMP DP  RH WIND       PRES   REMARKS
LAS VEGAS      CLOUDY    59  54  83 E5        30.34F
RATON          PTCLDY    58  53  84 E7        30.32R
CLAYTON        CLOUDY    66  60  81 E8        30.29R

$$
NMZ532>537-290800-
EASTCENTRAL PLAINS

CITY           SKY/WX    TMP DP  RH WIND       PRES   REMARKS
TUCUMCARI      MOCLDY    66  64  93 NW6       30.17F
CANNON AFB     MOCLDY    67  65  93 SE10      30.16F
CLOVIS AIRPORT MOCLDY    64  63  94 E6        30.17F

$$
NMZ028-029-538-290800-
SOUTHEAST PLAINS

CITY           SKY/WX    TMP DP  RH WIND       PRES   REMARKS
ROSWELL        CLOUDY    74  64  71 NW8       30.15R
ARTESIA        CLOUDY    75  64  69 W17       30.16R THUNDER
CARLSBAD       LGT RAIN  74  68  81 NW15      30.13F
HOBBS          MOCLDY    73  61  64 N14       30.14R


$$



USA.gov is the U.S. government's official web portal to all federal, state and local government web resources and services.